EW7067 Weather Reports


Display with metric or nautical units.
time (UTC)temp
F
wind
direction
speed
MPH
gust
MPH
rain 1hr
in
rain 24hr
in
rain mn
in
humidity
%
barometer
mb
20260506112159 60 184 1.0 4.0 0.00 0.00 0.00 88 968.9
20260506111654 60 215 1.0 4.0 0.00 0.00 0.00 87 968.9
20260506111147 60 182 1.0 5.0 0.00 0.00 0.00 87 968.9
20260506110641 60 216 1.0 5.0 0.00 0.00 0.00 87 968.8
20260506110136 60 203 1.0 4.0 0.00 0.00 0.00 87 968.7
20260506105630 60 206 1.0 4.0 0.00 0.00 0.00 87 968.6
20260506105124 60 173 1.0 6.0 0.00 0.00 0.00 87 968.6
20260506104617 60 173 2.0 8.0 0.00 0.00 0.00 87 968.6
20260506104112 60 207 2.0 8.0 0.00 0.00 0.00 87 968.6
20260506103606 60 198 3.0 8.0 0.00 0.00 0.00 87 968.4
20260506103059 60 204 3.0 8.0 0.00 0.00 0.00 87 968.4
20260506102554 60 186 3.0 8.0 0.00 0.00 0.00 88 968.2
20260506102047 59 167 3.0 8.0 0.00 0.00 0.00 88 968.3
20260506101542 59 195 2.0 6.0 0.00 0.00 0.00 88 968.2
20260506101036 59 196 1.0 4.0 0.00 0.00 0.00 88 968.1
20260506100531 59 196 1.0 4.0 0.00 0.00 0.00 88 968.2
20260506100023 59 173 1.0 7.0 0.00 0.00 0.00 88 968.2
20260506095517 59 221 1.0 7.0 0.00 0.00 0.00 88 968.3
20260506095012 59 188 1.0 6.0 0.00 0.00 0.00 88 968.2
20260506093959 59 224 1.0 4.0 0.00 0.00 0.00 87 968.3
20260506093454 59 224 1.0 5.0 0.00 0.00 0.00 87 968.4
20260506092948 59 225 1.0 5.0 0.00 0.00 0.00 87 968.1
20260506092442 59 238 1.0 5.0 0.00 0.00 0.00 87 968.2
20260506091936 59 194 1.0 5.0 0.00 0.00 0.00 87 968.3
20260506091430 60 199 0.0 3.0 0.00 0.00 0.00 87 968.4
20260506090924 60 189 0.0 3.0 0.00 0.00 0.00 86 968.6
20260506090417 60 186 1.0 3.0 0.00 0.00 0.00 86 968.6
20260506084354 60 223 0.0 4.0 0.00 0.00 0.00 85 968.5
20260506083848 60 185 0.0 5.0 0.00 0.00 0.00 85 968.4
20260506082836 60 208 1.0 7.0 0.00 0.00 0.00 85 968.7
20260506082329 61 215 1.0 4.0 0.00 0.00 0.00 84 968.6
20260506081826 61 165 1.0 6.0 0.00 0.00 0.00 84 968.7
20260506081326 61 165 1.0 8.0 0.00 0.00 0.00 84 968.8
20260506080826 61 165 1.0 8.0 0.00 0.00 0.00 84 968.7
20260506080327 61 198 1.0 5.0 0.00 0.00 0.00 83 968.7
20260506073320 62 223 1.0 4.0 0.00 0.00 0.00 82 968.7
20260506071817 62 186 0.0 4.0 0.00 0.00 0.00 81 968.8
20260506071316 61 211 0.0 3.0 0.00 0.00 0.00 81 969.0
20260506070313 61 211 0.0 3.0 0.00 0.00 0.00 81 969.0
20260506062306 62 249 1.0 5.0 0.00 0.00 0.00 79 968.9
20260506061805 62 250 0.0 3.0 0.00 0.00 0.00 78 969.0
20260506061303 62 152 0.0 3.0 0.00 0.00 0.00 78 969.0
20260506060802 61 187 0.0 4.0 0.00 0.00 0.00 77 969.0
20260506060302 61 187 1.0 6.0 0.00 0.00 0.00 77 969.2
20260506051254 61 240 0.0 5.0 0.00 0.00 0.00 74 969.1
20260506044749 60 218 0.0 0.0 0.00 0.00 0.00 74 969.1
20260506044250 60 218 0.0 1.0 0.00 0.00 0.00 73 969.1
20260506043749 60 218 0.0 1.0 0.00 0.00 0.00 75 969.0
20260506043250 60 222 0.0 0.0 0.00 0.00 0.00 75 968.9
20260506042750 60 222 0.0 0.0 0.00 0.00 0.00 74 969.1
20260506042249 61 222 0.0 0.0 0.00 0.00 0.00 72 969.1
20260506041249 61 222 0.0 0.0 0.00 0.00 0.00 71 969.2
20260506040750 62 222 0.0 0.0 0.00 0.00 0.00 71 969.0
20260506035248 63 222 0.0 1.0 0.00 0.00 0.00 70 968.8
20260506034749 63 222 0.0 1.0 0.00 0.00 0.00 69 969.0
20260506034246 63 222 0.0 2.0 0.00 0.00 0.00 68 969.0
20260506033745 63 225 0.0 6.0 0.00 0.00 0.00 68 969.1
20260506033246 63 158 0.0 6.0 0.00 0.00 0.00 68 969.1
20260506032746 62 241 0.0 0.0 0.00 0.00 0.00 69 969.1
20260506032243 62 241 0.0 0.0 0.00 0.00 0.00 69 969.0
20260506030742 63 241 0.0 0.0 0.00 0.00 0.00 68 969.1
20260506030242 63 241 0.0 0.0 0.00 0.00 0.00 68 969.1
20260506025742 64 241 0.0 0.0 0.00 0.00 0.00 67 969.0
20260506025240 64 241 0.0 1.0 0.00 0.00 0.00 66 969.0
20260506024739 64 241 0.0 2.0 0.00 0.00 0.00 66 969.1
20260506024237 64 241 0.0 2.0 0.00 0.00 0.00 66 969.1
20260506023240 64 241 0.0 3.0 0.00 0.00 0.00 66 969.1
20260506022737 64 241 0.0 3.0 0.00 0.00 0.00 67 969.2
20260506022236 64 241 0.0 1.0 0.00 0.00 0.00 66 969.1
20260506021736 64 241 0.0 1.0 0.00 0.00 0.00 66 969.1
20260506021236 64 241 0.0 0.0 0.00 0.00 0.00 66 969.2
20260506020735 65 241 0.0 1.0 0.00 0.00 0.00 66 969.3
20260506020236 65 241 0.0 1.0 0.00 0.00 0.00 65 969.4
20260506015736 65 241 0.0 0.0 0.00 0.00 0.00 65 969.3
20260506015236 65 241 0.0 0.0 0.00 0.00 0.00 65 969.2
20260506014236 66 241 0.0 0.0 0.00 0.00 0.00 64 969.1
20260506013736 66 241 0.0 2.0 0.00 0.00 0.00 63 969.2
20260506012732 66 241 0.0 1.0 0.00 0.00 0.00 62 969.2
20260506012231 67 241 0.0 1.0 0.00 0.00 0.00 62 969.2
20260506011731 67 241 0.0 0.0 0.00 0.00 0.00 61 969.1
20260506011232 67 241 0.0 2.0 0.00 0.00 0.00 61 969.1
20260506010732 67 241 0.0 4.0 0.00 0.00 0.00 60 969.1
20260506010232 68 241 0.0 4.0 0.00 0.00 0.00 60 969.1
20260506005731 68 243 0.0 3.0 0.00 0.00 0.00 59 969.0
20260506005231 68 243 0.0 2.0 0.00 0.00 0.00 59 969.0
20260506004733 69 243 0.0 2.0 0.00 0.00 0.00 58 968.9
20260506004228 69 243 0.0 3.0 0.00 0.00 0.00 57 968.9
20260506003729 69 243 0.0 3.0 0.00 0.00 0.00 56 968.9
20260506002727 70 246 0.0 4.0 0.00 0.00 0.00 54 968.9
20260506002228 71 238 0.0 2.0 0.00 0.00 0.00 54 968.8
20260506000728 72 186 0.0 3.0 0.00 0.00 0.00 52 968.7
20260506000228 72 186 1.0 6.0 0.00 0.00 0.00 51 968.7
20260505235728 73 186 1.0 6.0 0.00 0.00 0.00 50 968.8
20260505235226 73 178 1.0 5.0 0.00 0.00 0.00 50 968.8
20260505234725 73 225 1.0 6.0 0.00 0.00 0.00 49 968.8
20260505234224 73 184 2.0 8.0 0.00 0.00 0.00 49 968.7
20260505233722 74 203 3.0 9.0 0.00 0.00 0.00 48 968.7
20260505233222 74 175 3.0 11.0 0.00 0.00 0.00 48 968.6
20260505232722 74 222 3.0 11.0 0.00 0.00 0.00 48 968.5
20260505232222 74 163 3.0 14.0 0.00 0.00 0.00 47 968.5
20260505231717 74 192 3.0 14.0 0.00 0.00 0.00 47 968.5
20260505231218 74 184 3.0 11.0 0.00 0.00 0.00 47 968.6
20260505230716 74 166 3.0 13.0 0.00 0.00 0.00 46 968.6
20260505230213 74 243 3.0 13.0 0.00 0.00 0.00 47 968.6
20260505225212 74 180 4.0 12.0 0.00 0.00 0.00 46 968.5
20260505224713 74 175 3.0 12.0 0.00 0.00 0.00 46 968.5
20260505224210 74 211 3.0 14.0 0.00 0.00 0.00 46 968.6
20260505223707 75 213 4.0 14.0 0.00 0.00 0.00 46 968.5
20260505223205 75 223 2.0 14.0 0.00 0.00 0.00 47 968.6
20260505222706 75 192 2.0 12.0 0.00 0.00 0.00 47 968.5
20260505222205 75 316 3.0 12.0 0.00 0.00 0.00 48 968.5
20260505221706 75 153 4.0 12.0 0.00 0.00 0.00 47 968.5
20260505220705 74 219 5.0 14.0 0.00 0.00 0.00 47 968.5
20260505214702 76 243 8.0 21.0 0.00 0.00 0.00 44 968.7
20260505214202 76 136 5.0 21.0 0.00 0.00 0.00 43 968.8
20260505213701 76 159 4.0 14.0 0.00 0.00 0.00 44 968.7
20260505212659 76 184 6.0 18.0 0.00 0.00 0.00 43 968.8
20260505211658 76 242 7.0 14.0 0.00 0.00 0.00 45 969.0
20260505211152 76 174 6.0 15.0 0.00 0.00 0.00 45 969.1
20260505210647 76 213 6.0 15.0 0.00 0.00 0.00 45 969.1
20260505210140 76 211 6.0 14.0 0.00 0.00 0.00 45 969.1
20260505205634 76 187 4.0 14.0 0.00 0.00 0.00 44 969.0
20260505205129 76 227 3.0 12.0 0.00 0.00 0.00 46 969.1
20260505204117 77 47 7.0 16.0 0.00 0.00 0.00 44 969.1
20260505203610 77 175 6.0 16.0 0.00 0.00 0.00 44 969.1
20260505203105 77 174 5.0 15.0 0.00 0.00 0.00 43 969.1
20260505202053 77 209 5.0 15.0 0.00 0.00 0.00 45 969.2
20260505201547 78 183 4.0 15.0 0.00 0.00 0.00 44 969.3
20260505201041 77 205 4.0 11.0 0.00 0.00 0.00 44 969.3
20260505200535 77 158 5.0 19.0 0.00 0.00 0.00 44 969.5
20260505200029 77 201 6.0 19.0 0.00 0.00 0.00 43 969.4
20260505195017 76 181 7.0 20.0 0.00 0.00 0.00 43 969.6
20260505194511 76 243 6.0 20.0 0.00 0.00 0.00 44 969.5
20260505194005 77 169 5.0 20.0 0.00 0.00 0.00 44 969.5
20260505193459 77 190 6.0 20.0 0.00 0.00 0.00 44 969.6
20260505192446 77 188 8.0 25.0 0.00 0.00 0.00 45 969.5
20260505191940 77 217 5.0 16.0 0.00 0.00 0.00 44 969.6
20260505191434 77 298 5.0 18.0 0.00 0.00 0.00 44 969.8
20260505190928 77 221 5.0 18.0 0.00 0.00 0.00 45 970.0
20260505190423 77 238 3.0 10.0 0.00 0.00 0.00 46 970.1
20260505185411 77 144 5.0 22.0 0.00 0.00 0.00 45 970.2
20260505184905 77 274 3.0 15.0 0.00 0.00 0.00 46 970.2
20260505184358 77 224 6.0 22.0 0.00 0.00 0.00 46 970.3
20260505183853 76 198 6.0 22.0 0.00 0.00 0.00 45 970.5
20260505183346 76 169 4.0 14.0 0.00 0.00 0.00 47 970.4
20260505182841 76 192 5.0 14.0 0.00 0.00 0.00 47 970.6
20260505181829 76 344 4.0 16.0 0.00 0.00 0.00 47 970.6
20260505181323 76 248 4.0 11.0 0.00 0.00 0.00 49 970.7
20260505180816 76 247 4.0 14.0 0.00 0.00 0.00 48 970.7
20260505180310 76 160 4.0 14.0 0.00 0.00 0.00 49 970.8
20260505175805 76 269 4.0 12.0 0.00 0.00 0.00 50 971.0
20260505174752 75 165 5.0 14.0 0.00 0.00 0.00 50 971.1
20260505174246 75 165 5.0 16.0 0.00 0.00 0.00 49 971.0
20260505173740 74 161 5.0 16.0 0.00 0.00 0.00 50 971.2
20260505173235 75 215 6.0 19.0 0.00 0.00 0.00 47 971.0
20260505172729 76 178 5.0 19.0 0.00 0.00 0.00 48 970.9
20260505172223 76 254 4.0 12.0 0.00 0.00 0.00 48 970.8
20260505171717 76 311 3.0 12.0 0.00 0.00 0.00 44 971.0
20260505170159 76 324 5.0 14.0 0.00 0.00 0.00 50 971.1
20260505165652 75 285 4.0 11.0 0.00 0.00 0.00 47 971.1
20260505165147 75 225 4.0 11.0 0.00 0.00 0.00 49 971.1
20260505164641 75 301 3.0 12.0 0.00 0.00 0.00 49 971.1
20260505163629 74 126 5.0 20.0 0.00 0.00 0.00 51 971.5
20260505162121 73 219 5.0 15.0 0.00 0.00 0.00 52 971.5
20260505161621 73 200 5.0 15.0 0.00 0.00 0.00 53 971.5
20260505161121 72 150 4.0 14.0 0.00 0.00 0.00 56 971.4
20260505160621 72 194 4.0 11.0 0.00 0.00 0.00 54 971.7
20260505160121 72 209 4.0 11.0 0.00 0.00 0.00 54 971.7
20260505153120 71 225 3.0 12.0 0.00 0.00 0.00 60 971.9
20260505152616 71 249 2.0 10.0 0.00 0.00 0.00 59 971.9
20260505152112 71 198 2.0 10.0 0.00 0.00 0.00 60 971.9
20260505151614 70 168 1.0 9.0 0.00 0.00 0.00 60 971.9
20260505151113 69 231 1.0 6.0 0.00 0.00 0.00 63 971.9
20260505150607 69 250 2.0 7.0 0.00 0.00 0.00 62 971.9
20260505150107 68 168 3.0 10.0 0.00 0.00 0.00 63 971.9
20260505140605 65 173 3.0 8.0 0.00 0.00 0.00 66 971.9
20260505130105 59 233 0.0 0.0 0.00 0.00 0.00 80 971.7
20260505124609 55 231 0.0 0.0 0.00 0.00 0.00 87 971.6
20260505124108 53 231 0.0 0.0 0.00 0.00 0.00 90 971.6
20260505123607 52 231 0.0 0.0 0.00 0.00 0.00 92 971.5
20260505122103 50 231 0.0 0.0 0.00 0.00 0.00 93 971.6
20260505121603 49 231 0.0 0.0 0.00 0.00 0.00 93 971.5
20260505115059 46 231 0.0 0.0 0.00 0.00 0.00 93 971.3
20260505114555 46 231 0.0 0.0 0.00 0.00 0.00 93 971.3
20260505114056 46 231 0.0 0.0 0.00 0.00 0.00 93 971.4
20260505113554 45 231 0.0 0.0 0.00 0.00 0.00 93 971.4
20260505113050 45 231 0.0 0.0 0.00 0.00 0.00 93 971.3